Regional Weather Roundup
Issued by NWS

Home | Current Version | Previous Version | Text Only | Print | Product List | Glossary On
Versions: 1 2 3 4 5 6 7 8 9 10 11 12 13 14 15 16 17 18 19 20 21 22 23 24 25 26 27 28 29 30 31 32 33 34 35 36 37 38 39 40 41 42 43 44 45 46 47 48 49 50
000
ASCA44 KEWX 230620
RWRMX

LATIN AMERICA AND CARIBBEAN REGIONAL WEATHER ROUNDUP
NATIONAL WEATHER SERVICE AUSTIN/SAN ANTONIO TX
100 AM CDT MON OCT 23 2017

NOTE: "FAIR" INDICATED FEW OR NO CLOUDS BELOW 12,000 FEET WITH NO
SIGNIFICANT WEATHER AND/OR OBSTRUCTIONS TO VISIBILITY.

BAJA CALIFORNIA

CITY           SKY/WX    TMP DP  RH WIND       PRES   REMARKS
LA PAZ         CLEAR     75  66  73 CALM      29.94F
MEXICALI       CLEAR     72  25  17 W6        30.08S
S.J. DEL CABO    N/A    N/A N/A N/A MISG        N/A
TIJUANA        CLEAR     66  39  37 CALM      30.09S

NORTHWESTERN MEXICO

CITY           SKY/WX    TMP DP  RH WIND       PRES   REMARKS
HERMOSILLO     CLEAR     73  50  43 SW5       29.99S

NORTHEASTERN MEXICO

CITY           SKY/WX    TMP DP  RH WIND       PRES   REMARKS
MONCLOVA         N/A    N/A N/A N/A MISG        N/A
MONTERREY      CLOUDY    72  61  68 SE8       30.18S
REYNOSA          N/A    N/A N/A N/A MISG        N/A
CD. VICTORIA     N/A    N/A N/A N/A MISG        N/A

WESTERN MEXICO

CITY           SKY/WX    TMP DP  RH WIND       PRES   REMARKS
AGUASCALIENTES CLEAR     64  50  59 E13       30.35R
COLIMA           N/A    N/A N/A N/A MISG        N/A
DEL BAJIO      CLEAR     63  50  63 N7        30.42R
GUADALAJARA    CLEAR     63  50  63 CALM      30.22R
MAZATLAN       CLEAR     77  75  94 CALM      29.84S
P. VALLARTA    PTCLDY    81  77  89 CALM      29.85F
URUAPAN          N/A    N/A N/A N/A MISG        N/A
ZACATECAS      CLEAR     54  43  66 CALM      30.40F

CENTRAL MEXICO

CITY           SKY/WX    TMP DP  RH WIND       PRES   REMARKS
CUERNAVACA       N/A    N/A N/A N/A MISG        N/A
MEXICO CITY    MOCLDY    59  45  58 N6        30.46F
MORELIA        PTCLDY    61  50  67 E6        30.32S
POZA RICA        N/A    N/A N/A N/A MISG        N/A
QUERETARO      PTCLDY    59  52  77 E9        30.44S
S. LUIS POTOSI PTCLDY    61  48  63 SE7       30.38R
TOLUCA         CLEAR     48  41  76 NE5       30.49S WCI  46

SOUTHERN MEXICO

CITY           SKY/WX    TMP DP  RH WIND       PRES   REMARKS
ACAPULCO       PTCLDY    82  79  89 E2        29.88S HX  93
B. DE HUATULCO   N/A    N/A N/A N/A MISG        N/A
P. ESCONDIDO     N/A    N/A N/A N/A MISG        N/A
VERACRUZ         N/A    N/A N/A N/A MISG        N/A

YUCATAN PENINSULA

CITY           SKY/WX    TMP DP  RH WIND       PRES   REMARKS
CAMPECHE         N/A    N/A N/A N/A MISG        N/A
CANCUN         CLOUDY    75  75 100 N2        29.97F
CHETUMAL         N/A    N/A N/A N/A MISG        N/A
CD. DEL CARMEN   N/A    N/A N/A N/A MISG        N/A
COZUMEL        PTCLDY    77  77 100 CALM      29.94F
MERIDA         MOCLDY    75  72  88 CALM      29.98S
MINATITLAN       N/A    N/A N/A N/A MISG        N/A
TAPACHULA        N/A    N/A N/A N/A MISG        N/A

CENTRAL AMERICA

CITY           SKY/WX    TMP DP  RH WIND       PRES   REMARKS
MANAGUA        PTCLDY    79  75  89 S5        29.80F

CARIBBEAN

CITY           SKY/WX    TMP DP  RH WIND       PRES   REMARKS
KINGSTON       PTCLDY    84  72  65 E16       29.92F
NASSAU         MOCLDY    81  75  83 E8        30.08F
SAN JUAN       PTCLDY    81  75  83 SE3       30.00F
SANTO DOMINGO  PTCLDY    75  72  88 N5        29.97S
ST. THOMAS       N/A     79  75  89 E9        29.99

$$




USA.gov is the U.S. government's official web portal to all federal, state and local government web resources and services.